Zurück zum Katalog

STARLINK-31972

AktivKommunikationVLEO
NORAD 59923·PAYLOAD·🇺🇸 United States

Gestartet Jun 1, 2024 von Cape Canaveral Space Force Station

Loading…

Nächste Überflüge (nächste 24 Stunden)

TLE

AktuellSource: CelesTrak SupGP

Epoche: Sep 14, 2026, 22:11 UTC

1 59923C 24106B   26257.92479167 -.00021912  00000+0 -79390-3 0  2572
2 59923  43.0015 343.9243 0001663 276.2064  48.9412 15.27578412    15

Verfolge STARLINK-31972 in Echtzeit mit AllMySat

Download on the App Store